| time (UTC) | temp F | wind direction | speed knots | gust knots | rain 1hr in | rain 24hr in | rain mn in | humidity % | barometer mb |
| 20260906073402 | 72 | 360 | 12.2 | 0.0 | 0.00 | 0.00 | 0.00 | 65 | 1018.0 |
| 20260906071903 | 72 | 360 | 12.2 | 0.0 | 0.00 | 0.00 | 0.00 | 65 | 1018.0 |
| 20260906070402 | 72 | 360 | 12.2 | 0.0 | 0.00 | 0.00 | 0.00 | 65 | 1018.0 |
| 20260906064902 | 72 | 360 | 12.2 | 0.0 | 0.00 | 0.00 | 0.00 | 69 | 1017.0 |
| 20260906063403 | 72 | 360 | 12.2 | 0.0 | 0.00 | 0.00 | 0.00 | 69 | 1017.0 |
| 20260906062026 | 0 | 0.0 | 0.0 | 0.00 | 0.00 | 0.00 | |||
| 20260906060402 | 72 | 360 | 12.2 | 0.0 | 0.00 | 0.00 | 0.00 | 69 | 1017.0 |
| 20260906054928 | 70 | 360 | 12.2 | 0.0 | 0.00 | 0.00 | 0.00 | 73 | 1016.0 |
| 20260906053402 | 70 | 360 | 12.2 | 0.0 | 0.00 | 0.00 | 0.00 | 73 | 1016.0 |
| 20260906051903 | 70 | 360 | 12.2 | 0.0 | 0.00 | 0.00 | 0.00 | 73 | 1016.0 |
| 20260906050525 | 0 | 0.0 | 0.0 | 0.00 | 0.00 | 0.00 | |||
| 20260906045025 | 0 | 0.0 | 0.0 | 0.00 | 0.00 | 0.00 | |||
| 20260906043514 | 0 | 0.0 | 0.0 | 0.00 | 0.00 | 0.00 | |||
| 20260906042026 | 0 | 0.0 | 0.0 | 0.00 | 0.00 | 0.00 | |||
| 20260906040422 | 70 | 360 | 13.9 | 0.0 | 0.00 | 0.00 | 0.00 | 78 | 1016.0 |
| 20260906034926 | 0 | 0.0 | 0.0 | 0.00 | 0.00 | 0.00 | |||
| 20260906033526 | 0 | 0.0 | 0.0 | 0.00 | 0.00 | 0.00 | |||
| 20260906032027 | 0 | 0.0 | 0.0 | 0.00 | 0.00 | 0.00 | |||
| 20260906030526 | 0 | 0.0 | 0.0 | 0.00 | 0.00 | 0.00 | |||
| 20260906024930 | 66 | 240 | 7.8 | 0.0 | 0.00 | 0.00 | 0.00 | 88 | 1015.0 |
| 20260906023403 | 0 | 0.0 | 0.0 | 0.00 | 0.00 | 0.00 | |||
| 20260906021909 | 0 | 0.0 | 0.0 | 0.00 | 0.00 | 0.00 | |||
| 20260906020404 | 0 | 0.0 | 0.0 | 0.00 | 0.00 | 0.00 | |||
| 20260906014904 | 0 | 0.0 | 0.0 | 0.00 | 0.00 | 0.00 | |||
| 20260906013526 | 0 | 0.0 | 0.0 | 0.00 | 0.00 | 0.00 | |||
| 20260906011902 | 0 | 0.0 | 0.0 | 0.00 | 0.00 | 0.00 | |||
| 20260906010402 | 0 | 0.0 | 0.0 | 0.00 | 0.00 | 0.00 | |||
| 20260906005026 | 0 | 0.0 | 0.0 | 0.00 | 0.00 | 0.00 | |||
| 20260906003536 | 0 | 0.0 | 0.0 | 0.00 | 0.00 | 0.00 | |||
| 20260906002027 | 0 | 0.0 | 0.0 | 0.00 | 0.00 | 0.00 | |||
| 20260906000516 | 0 | 0.0 | 0.0 | 0.00 | 0.00 | 0.00 | |||
| 20260905234913 | 0 | 0.0 | 0.0 | 0.00 | 0.00 | 0.00 | |||
| 20260905233402 | 0 | 0.0 | 0.0 | 0.00 | 0.00 | 0.00 | |||
| 20260905232028 | 0 | 0.0 | 0.0 | 0.00 | 0.00 | 0.00 | |||
| 20260905230435 | 0 | 0.0 | 0.0 | 0.00 | 0.00 | 0.00 | |||
| 20260905225027 | 0 | 0.0 | 0.0 | 0.00 | 0.00 | 0.00 | |||
| 20260905223416 | 0 | 0.0 | 0.0 | 0.00 | 0.00 | 0.00 | |||
| 20260905222012 | 0 | 0.0 | 0.0 | 0.00 | 0.00 | 0.00 | |||
| 20260905220526 | 0 | 0.0 | 0.0 | 0.00 | 0.00 | 0.00 | |||
| 20260905215025 | 0 | 0.0 | 0.0 | 0.00 | 0.00 | 0.00 | |||
| 20260905213403 | 0 | 0.0 | 0.0 | 0.00 | 0.00 | 0.00 | |||
| 20260905211859 | 0 | 0.0 | 0.0 | 0.00 | 0.00 | 0.00 | |||
| 20260905210403 | 0 | 0.0 | 0.0 | 0.00 | 0.00 | 0.00 | |||
| 20260905204913 | 72 | 170 | 7.8 | 0.0 | 0.00 | 0.00 | 0.00 | 73 | 1014.0 |
| 20260905203402 | 72 | 170 | 7.8 | 0.0 | 0.00 | 0.00 | 0.00 | 73 | 1014.0 |
| 20260905201902 | 72 | 170 | 7.8 | 0.0 | 0.00 | 0.00 | 0.00 | 73 | 1014.0 |
| 20260905200526 | 0 | 0.0 | 0.0 | 0.00 | 0.00 | 0.00 | |||
| 20260905195024 | 0 | 0.0 | 0.0 | 0.00 | 0.00 | 0.00 | |||
| 20260905193403 | 73 | 160 | 6.1 | 0.0 | 0.00 | 0.00 | 0.00 | 65 | 1015.0 |
| 20260905191932 | 73 | 160 | 6.1 | 0.0 | 0.00 | 0.00 | 0.00 | 65 | 1015.0 |
| 20260905190404 | 0 | 0.0 | 0.0 | 0.00 | 0.00 | 0.00 | |||
| 20260905184900 | 75 | 160 | 6.1 | 0.0 | 0.00 | 0.00 | 0.00 | 57 | 1014.0 |
| 20260905183408 | 75 | 160 | 6.1 | 0.0 | 0.00 | 0.00 | 0.00 | 57 | 1014.0 |
| 20260905181900 | 75 | 160 | 6.1 | 0.0 | 0.00 | 0.00 | 0.00 | 57 | 1014.0 |
| 20260905180359 | 75 | 160 | 6.1 | 0.0 | 0.00 | 0.00 | 0.00 | 57 | 1014.0 |
| 20260905174856 | 79 | 170 | 7.8 | 0.0 | 0.00 | 0.00 | 0.00 | 48 | 1014.0 |
| 20260905173402 | 79 | 170 | 7.8 | 0.0 | 0.00 | 0.00 | 0.00 | 48 | 1014.0 |
| 20260905171904 | 79 | 170 | 7.8 | 0.0 | 0.00 | 0.00 | 0.00 | 48 | 1014.0 |
| 20260905170403 | 79 | 170 | 7.8 | 0.0 | 0.00 | 0.00 | 0.00 | 48 | 1014.0 |
| 20260905164903 | 81 | 160 | 9.6 | 0.0 | 0.00 | 0.00 | 0.00 | 62 | 1014.0 |
| 20260905163404 | 81 | 160 | 9.6 | 0.0 | 0.00 | 0.00 | 0.00 | 62 | 1014.0 |
| 20260905161901 | 81 | 160 | 9.6 | 0.0 | 0.00 | 0.00 | 0.00 | 62 | 1014.0 |
| 20260905160403 | 81 | 160 | 9.6 | 0.0 | 0.00 | 0.00 | 0.00 | 62 | 1014.0 |
| 20260905154913 | 82 | 160 | 9.6 | 20.0 | 0.00 | 0.00 | 0.00 | 58 | 1014.0 |
| 20260905153402 | 82 | 160 | 9.6 | 20.0 | 0.00 | 0.00 | 0.00 | 58 | 1014.0 |
| 20260905151903 | 82 | 160 | 9.6 | 20.0 | 0.00 | 0.00 | 0.00 | 58 | 1014.0 |
| 20260905150403 | 82 | 160 | 9.6 | 20.0 | 0.00 | 0.00 | 0.00 | 58 | 1014.0 |
| 20260905144856 | 84 | 160 | 9.6 | 20.0 | 0.00 | 0.00 | 0.00 | 51 | 1014.0 |
| 20260905143402 | 84 | 160 | 9.6 | 20.0 | 0.00 | 0.00 | 0.00 | 51 | 1014.0 |
| 20260905141900 | 84 | 160 | 9.6 | 20.0 | 0.00 | 0.00 | 0.00 | 51 | 1014.0 |
| 20260905140359 | 84 | 160 | 9.6 | 20.0 | 0.00 | 0.00 | 0.00 | 51 | 1014.0 |
| 20260905135023 | 0 | 0.0 | 0.0 | 0.00 | 0.00 | 0.00 | |||
| 20260905133403 | 84 | 160 | 9.6 | 20.0 | 0.00 | 0.00 | 0.00 | 51 | 1014.0 |
| 20260905131905 | 84 | 160 | 9.6 | 20.0 | 0.00 | 0.00 | 0.00 | 51 | 1014.0 |
| 20260905130424 | 84 | 160 | 9.6 | 20.0 | 0.00 | 0.00 | 0.00 | 51 | 1014.0 |
| 20260905124857 | 86 | 160 | 9.6 | 20.0 | 0.00 | 0.00 | 0.00 | 43 | 1015.0 |
| 20260905123403 | 86 | 160 | 9.6 | 20.0 | 0.00 | 0.00 | 0.00 | 43 | 1015.0 |
| 20260905121931 | 86 | 160 | 9.6 | 20.0 | 0.00 | 0.00 | 0.00 | 43 | 1015.0 |
| 20260905120404 | 86 | 160 | 9.6 | 20.0 | 0.00 | 0.00 | 0.00 | 43 | 1015.0 |
| 20260905114903 | 86 | 150 | 9.6 | 20.0 | 0.00 | 0.00 | 0.00 | 46 | 1015.0 |
| 20260905113403 | 86 | 150 | 9.6 | 20.0 | 0.00 | 0.00 | 0.00 | 46 | 1015.0 |
| 20260905111921 | 86 | 150 | 9.6 | 20.0 | 0.00 | 0.00 | 0.00 | 46 | 1015.0 |
| 20260905110402 | 86 | 150 | 9.6 | 20.0 | 0.00 | 0.00 | 0.00 | 46 | 1015.0 |
| 20260905104903 | 88 | 140 | 12.2 | 0.0 | 0.00 | 0.00 | 0.00 | 38 | 1016.0 |
| 20260905103403 | 88 | 140 | 12.2 | 0.0 | 0.00 | 0.00 | 0.00 | 38 | 1016.0 |
| 20260905101902 | 88 | 140 | 12.2 | 0.0 | 0.00 | 0.00 | 0.00 | 38 | 1016.0 |
| 20260905100403 | 88 | 140 | 12.2 | 0.0 | 0.00 | 0.00 | 0.00 | 38 | 1016.0 |
| 20260905095026 | 0 | 0.0 | 0.0 | 0.00 | 0.00 | 0.00 | |||
| 20260905093402 | 88 | 130 | 12.2 | 0.0 | 0.00 | 0.00 | 0.00 | 35 | 1016.0 |
| 20260905091903 | 88 | 130 | 12.2 | 0.0 | 0.00 | 0.00 | 0.00 | 35 | 1016.0 |
| 20260905090403 | 88 | 130 | 12.2 | 0.0 | 0.00 | 0.00 | 0.00 | 35 | 1016.0 |
| 20260905084902 | 86 | 140 | 7.8 | 0.0 | 0.00 | 0.00 | 0.00 | 40 | 1016.0 |
| 20260905083403 | 86 | 140 | 7.8 | 0.0 | 0.00 | 0.00 | 0.00 | 40 | 1016.0 |
| 20260905081902 | 86 | 140 | 7.8 | 0.0 | 0.00 | 0.00 | 0.00 | 40 | 1016.0 |
| 20260905080403 | 86 | 140 | 7.8 | 0.0 | 0.00 | 0.00 | 0.00 | 40 | 1016.0 |
| 20260905074902 | 0 | 0.0 | 0.0 | 0.00 | 0.00 | 0.00 |